Weather History for KIWI - February, 2012

Change the Weather History Date:

Tuesday, February 28, 2012

  Actual Average Record
Temperature  
Mean Temperature 30 °F -  
Max Temperature 36 °F 35 °F 48 °F (1998)
Min Temperature 21 °F 17 °F -9 °F (2015)
Degree Days  
Heating Degree Days 36    
Moisture  
Dew Point 17 °F    
Average Humidity 61    
Maximum Humidity 89    
Minimum Humidity 34    
Precipitation  
Precipitation 0.00 in - - ()
Sea Level Pressure  
Sea Level Pressure 30.21 in    
Wind  
Wind Speed 3 mph (NW)    
Max Wind Speed 13 mph    
Max Gust Speed 29 mph    
Visibility 10 miles    
Events      
Averages and records for this station are not official NWS values.
T = Trace of Precipitation, MM = Missing Value Source: NWS Daily Summary

Daily Weather History Graph

Daily Weather History Graph

Search for Another Location

Airport or City:

Trip Planner

Search our weather history database for the weather conditions in past years. The results will help you decide how hot, cold, wet, or windy it might be!

Date:

Astronomy

Feb. 28, 2012 Rise Set
Actual Time 6:18 AM EST 5:25 PM EST
Civil Twilight 5:49 AM EST 5:54 PM EST
Nautical Twilight 5:15 AM EST 6:27 PM EST
Astronomical Twilight 4:42 AM EST 7:01 PM EST
Moon 9:08 AM EST (2/28) No Moon Set
Length of Visible Light 12h 04m
Length of Day
11h 07m
Waxing Crescent, 37% of the Moon is Illuminated
Feb 28
Waxing Crescent
Feb 29
First Quarter
Mar 8
Full
Mar 14
Last Quarter
Mar 22
New

Hourly Weather History & Observations

Time (EST) Temp. Windchill Dew Point Humidity Pressure Visibility Wind Dir Wind Speed Gust Speed Precip Events Conditions
12:53 AM 27.0 °F - 24.1 °F 89% 30.01 in 10.0 mi Calm Calm - N/A   Mostly Cloudy
1:11 AM 28.4 °F 21.2 °F 24.8 °F 86% 30.03 in 10.0 mi Variable 6.9 mph - N/A   Mostly Cloudy
1:33 AM 28.4 °F - 24.8 °F 86% 30.02 in 10.0 mi Calm Calm - N/A   Overcast
1:53 AM 28.9 °F - 24.1 °F 82% 30.02 in 10.0 mi Calm Calm - N/A   Overcast
2:53 AM 28.9 °F 25.2 °F 24.1 °F 82% 30.02 in 10.0 mi Variable 3.5 mph - N/A   Overcast
3:53 AM 28.9 °F - 24.1 °F 82% 30.04 in 10.0 mi Calm Calm - N/A   Mostly Cloudy
4:53 AM 28.0 °F 24.2 °F 24.1 °F 85% 30.06 in 10.0 mi WNW 3.5 mph - N/A   Mostly Cloudy
5:53 AM 28.0 °F - 24.1 °F 85% 30.08 in 10.0 mi Calm Calm - N/A   Overcast
6:53 AM 28.0 °F - 25.0 °F 88% 30.11 in 10.0 mi Calm Calm - N/A   Overcast
7:53 AM 33.1 °F - 26.1 °F 75% 30.15 in 10.0 mi Calm Calm - N/A   Overcast
8:53 AM 35.1 °F 30.1 °F 21.9 °F 59% 30.17 in 10.0 mi Variable 5.8 mph - N/A   Partly Cloudy
9:53 AM 34.0 °F 25.0 °F 14.0 °F 44% 30.21 in 10.0 mi NNW 12.7 mph 24.2 mph N/A   Scattered Clouds
10:53 AM 34.0 °F 26.6 °F 12.0 °F 40% 30.24 in 10.0 mi NW 9.2 mph 28.8 mph N/A   Clear
11:53 AM 35.1 °F 26.9 °F 10.9 °F 37% 30.25 in 10.0 mi NW 11.5 mph 23.0 mph N/A   Clear
12:53 PM 35.1 °F 27.9 °F 10.9 °F 37% 30.25 in 10.0 mi WNW 9.2 mph - N/A   Clear
1:53 PM 36.0 °F 33.3 °F 10.0 °F 34% 30.27 in 10.0 mi Variable 3.5 mph - N/A   Clear
2:53 PM 35.1 °F 29.3 °F 10.9 °F 37% 30.27 in 10.0 mi Variable 6.9 mph - N/A   Clear
3:53 PM 34.0 °F 29.8 °F 10.9 °F 38% 30.30 in 10.0 mi Variable 4.6 mph - N/A   Clear
4:53 PM 33.1 °F 28.7 °F 10.9 °F 40% 30.33 in 10.0 mi Variable 4.6 mph - N/A   Clear
5:53 PM 30.9 °F 27.5 °F 10.9 °F 43% 30.36 in 10.0 mi WNW 3.5 mph - N/A   Clear
6:53 PM 30.0 °F - 12.0 °F 47% 30.37 in 10.0 mi Calm Calm - N/A   Scattered Clouds
7:53 PM 28.0 °F 24.2 °F 12.0 °F 51% 30.38 in 10.0 mi Variable 3.5 mph - N/A   Clear
8:53 PM 28.0 °F - 12.0 °F 51% 30.40 in 10.0 mi Calm Calm - N/A   Clear
9:53 PM 25.0 °F - 12.9 °F 60% 30.40 in 10.0 mi Calm Calm - N/A   Clear
10:53 PM 23.0 °F - 12.9 °F 65% 30.40 in 10.0 mi Calm Calm - N/A   Clear
11:53 PM 21.0 °F - 12.9 °F 71% 30.40 in 10.0 mi Calm Calm - N/A   Clear